User: anonymous   Login
Location: Caltech
(34.1382°N, 118.1253°W)
Time: 13:26:08
(UTC-08:00)
Language:

Cosmos 1939 Rocket - Orbit

View from above orbital plane
View from above orbital plane
View from above satellite
View from above satellite

Ground track
Ground track

The orbit data is extracted from the following two-line orbital elements,

1 19046U 88032B   14350.41275078  .00003244  00000-0  26021-3 0   750
2 19046 097.6209 041.5731 0038564 196.8847 163.1096 15.00211501435515
Epoch (UTC): 16 December 2014 09:54:21
Eccentricity: 0.0038564
inclination: 97.6209°
perigee height: 539 km
apogee height: 593 km
right ascension of ascending node: 41.5731°
argument of perigee: 196.8847°
revolutions per day: 15.00211501
mean anomaly at epoch: 163.1096°
orbit number at epoch: 43551

The dashed part of the orbit path shows where the satellite is in the earth's shadow,  

DLR